sat.trackr.live / text

‹ back to catalog

STARLINK-37224

NORAD 68671 · 2026-077K

PAYLOAD ACTIVE UNKNOWN

§ Identity

Operator
Country
US
Launch date
2026-04-11
Launch site
AFWTR
Launch vehicle
Mass (kg)
RCS (m²)

Purposes: comms

External: N2YO · Heavens-Above · Gunter

§ Orbital elements

Epoch: 2026-05-25T03:21:11.325024Z

Period
93.91 min
Inclination
97.2863°
Eccentricity
0.0001432
Mean motion
15.33455212 rev/d
Perigee alt
464.5 km
Apogee alt
466.5 km
Semi-major
6,843.6 km
B*
4.2456e-4
RAAN
16.7064°
Arg perigee
89.9494°
Mean anomaly
270.1913°
Rev number
687

§ Raw data

STARLINK-372241 68671U 26077K   26145.13971441  .00013661  00000+0  42456-3 0  99982 68671  97.2863  16.7064 0001432  89.9494 270.1913 15.33455212  6877

JSON: /api/v1/satellites/68671 · /tle

For live sub-satellite position, see the globe view (requires WebGL).

§ Visibility from observer

Set your observer location to see the next 7 days of passes ≥ 10°. The values pass through the URL so the page stays shareable.

No JS? Fill the form by hand. The geolocation button needs JavaScript.